Time_in_sec,Latitude,Longitude,Altitude,Nbsat_max_qualitysignal,Nbsat_locked,valid_data
1326903936.66546249,47.37636566,8.55023003,494.83743286,4,8,1
1326904059.72547722,47.37637711,8.55022812,496.74752808,7,7,1
1326904059.77704763,47.37637711,8.55022812,496.74063110,7,7,1
1326904059.82503891,47.37637711,8.55022812,496.71081543,7,7,1
1326904059.87752223,47.37637711,8.55022812,496.70370483,7,7,1
1326904059.92453313,47.37637711,8.55022812,496.69653320,7,7,1
1326904059.97750187,47.37637711,8.55022812,496.68933105,7,7,1
1326904060.02487350,47.37637711,8.55022812,496.68206787,7,7,1
1326904060.07662010,47.37637711,8.55022812,496.64828491,7,7,1
1326904060.12601423,47.37637711,8.55022812,496.64080811,7,7,1
1326904060.17753100,47.37637711,8.55022812,496.63333130,7,7,1
1326904060.22561097,47.37637711,8.55022812,496.62576294,7,7,1
1326904060.27388763,47.37637711,8.55022812,496.61816406,7,7,1
1326904060.32491231,47.37637711,8.55022812,496.58056641,7,7,1
1326904060.37751794,47.37637711,8.55022812,496.57278442,7,7,1
1326904060.42535543,47.37637711,8.55022812,496.56494141,7,7,1
1326904060.47753048,47.37637711,8.55022812,496.55706787,7,7,1
1326904060.52552938,47.37637711,8.55022717,496.54916382,7,7,1
1326904060.57762265,47.37638092,8.55022717,496.50769043,7,7,1
1326904060.62562418,47.37637711,8.55022717,496.49954224,7,7,1
1326904060.68181372,47.37637711,8.55022717,496.49136353,7,7,1
1326904060.72952986,47.37637711,8.55022717,496.48315430,7,7,1
1326904060.77753162,47.37637711,8.55022717,496.47485352,7,7,1
1326904060.82472205,47.37638092,8.55022621,496.43603516,7,7,1
1326904060.87684917,47.37638092,8.55022621,496.42755127,7,7,1
1326904060.92548442,47.37638092,8.55022621,496.41903687,7,7,1
1326904060.97667146,47.37638092,8.55022621,496.41049194,7,7,1
1326904061.02457476,47.37638092,8.55022621,496.40188599,7,7,1
1326904061.07750869,47.37638092,8.55022621,496.36392212,7,7,1
1326904061.12547064,47.37638092,8.55022621,496.35516357,7,7,1
1326904061.17649531,47.37638092,8.55022621,496.34634399,7,7,1
1326904061.22466803,47.37638092,8.55022621,496.33746338,7,7,1
1326904061.27482533,47.37638092,8.55022621,496.32855225,7,7,1
1326904061.32548738,47.37638092,8.55022621,496.28668213,7,7,1
1326904061.37657976,47.37638092,8.55022621,496.27758789,7,7,1
1326904061.42559505,47.37638092,8.55022621,496.26840210,7,7,1
1326904061.47751737,47.37638092,8.55022526,496.25918579,7,7,1
1326904061.52555108,47.37638092,8.55022526,496.24990845,7,7,1
1326904061.58053231,47.37638092,8.55022621,496.20993042,7,7,1
1326904061.62560320,47.37638092,8.55022621,496.20043945,7,7,1
1326904061.67651629,47.37638092,8.55022621,496.19091797,7,7,1
1326904061.72550154,47.37638092,8.55022526,496.18136597,7,7,1
1326904061.77745438,47.37638092,8.55022526,496.17172241,7,7,1
1326904061.82548332,47.37638092,8.55022621,496.13842773,7,7,1
1326904061.87750769,47.37638092,8.55022621,496.12869263,7,7,1
1326904061.92448926,47.37638092,8.55022526,496.11886597,7,7,1
1326904061.97652721,47.37638092,8.55022526,496.10903931,7,7,1
1326904062.02493286,47.37638092,8.55022526,496.09915161,7,7,1
1326904062.07754469,47.37638092,8.55022621,496.06277466,7,7,1
1326904062.12559128,47.37638092,8.55022621,496.05270386,7,7,1
1326904062.17730141,47.37638092,8.55022621,496.04257202,7,7,1
1326904062.22455668,47.37638092,8.55022621,496.03244019,7,7,1
1326904062.27747965,47.37638092,8.55022621,496.02221680,7,7,1
1326904062.32553840,47.37638092,8.55022621,495.97680664,7,7,1
1326904062.37752509,47.37638092,8.55022621,495.96633911,7,7,1
1326904062.42467356,47.37638092,8.55022621,495.95584106,7,7,1
1326904062.47754312,47.37638092,8.55022621,495.94531250,7,7,1
1326904062.52547503,47.37638092,8.55022621,495.93472290,7,7,1
1326904062.57663155,47.37638092,8.55022621,495.89959717,7,7,1
1326904062.62453461,47.37638092,8.55022621,495.88879395,7,7,1
1326904062.67750716,47.37638092,8.55022621,495.87799072,7,7,1
1326904062.72548556,47.37638092,8.55022621,495.86712646,7,7,1
1326904062.77749968,47.37638092,8.55022621,495.85623169,7,7,1
1326904062.82571173,47.37638092,8.55022717,495.82592773,7,7,1
1326904062.87650180,47.37638092,8.55022717,495.81491089,7,7,1
1326904062.92550445,47.37638092,8.55022717,495.80383301,7,7,1
1326904062.97653580,47.37638092,8.55022717,495.79272461,7,7,1
1326904063.02452564,47.37638092,8.55022717,495.78155518,7,7,1
1326904063.07388091,47.37638092,8.55022717,495.74877930,7,7,1
1326904063.12464261,47.37638092,8.55022717,495.73742676,7,7,1
1326904063.17655301,47.37638092,8.55022717,495.72607422,7,7,1
1326904063.22452974,47.37638092,8.55022717,495.71466064,7,7,1
1326904063.27662921,47.37638092,8.55022717,495.70321655,7,7,1
1326904063.32549310,47.37638092,8.55022717,495.67892456,7,7,1
1326904063.37650704,47.37638092,8.55022717,495.66735840,7,7,1
1326904063.42552543,47.37638092,8.55022717,495.65573120,7,7,1
1326904063.48246050,47.37638092,8.55022717,495.64407349,7,7,1
1326904063.52963948,47.37638092,8.55022717,495.63238525,7,7,1
1326904063.57765841,47.37638092,8.55022717,495.60733032,7,7,1
1326904063.62953448,47.37638092,8.55022717,495.59548950,7,7,1
1326904063.67661953,47.37638092,8.55022621,495.58358765,7,7,1
1326904063.72548056,47.37638092,8.55022621,495.57165527,7,7,1
1326904063.77667284,47.37638092,8.55022621,495.55969238,7,7,1
1326904063.82556391,47.37638092,8.55022717,495.54507446,7,7,1
1326904063.87810493,47.37638092,8.55022717,495.53298950,7,7,1
1326904063.92554784,47.37638092,8.55022717,495.52087402,7,7,1
1326904063.97751498,47.37638092,8.55022717,495.50872803,7,7,1
1326904064.02552080,47.37638092,8.55022717,495.49655151,7,7,1
1326904064.07766175,47.37638092,8.55022812,495.47866821,7,7,1
1326904064.12550449,47.37638092,8.55022812,495.46636963,7,7,1
1326904064.17662191,47.37638092,8.55022812,495.45404053,7,7,1
1326904064.22461462,47.37638092,8.55022812,495.44168091,7,7,1
1326904064.27779961,47.37638092,8.55022812,495.42922974,7,7,1
1326904064.32518721,47.37638092,8.55022812,495.41815186,7,7,1
1326904064.37754965,47.37638092,8.55022812,495.40563965,7,7,1
1326904064.42466450,47.37638092,8.55022812,495.39309692,7,7,1
1326904064.47759628,47.37638092,8.55022812,495.38049316,7,7,1
1326904064.52448106,47.37638092,8.55022812,495.36782837,7,7,1
1326904064.57738304,47.37638092,8.55022812,495.36538696,7,7,1
1326904064.62472963,47.37638092,8.55022812,495.35269165,7,7,1
1326904064.67780185,47.37638092,8.55022812,495.33996582,7,7,1
1326904064.72557592,47.37638092,8.55022812,495.32717896,7,7,1
1326904064.77751327,47.37638092,8.55022812,495.31436157,7,7,1
1326904064.82549453,47.37638092,8.55022812,495.31723022,7,7,1
1326904064.87747121,47.37638092,8.55022812,495.30438232,7,7,1
1326904064.92548966,47.37638092,8.55022812,495.29147339,7,7,1
1326904064.97733974,47.37638092,8.55022812,495.27853394,7,7,1
1326904065.02453136,47.37638092,8.55022812,495.26556396,7,7,1
1326904065.07755017,47.37638092,8.55022812,495.28381348,7,7,1
1326904065.12554264,47.37638092,8.55022812,495.27087402,7,7,1
1326904065.17440200,47.37638092,8.55022812,495.25790405,7,7,1
1326904065.22550130,47.37638092,8.55022812,495.24490356,7,7,1
1326904065.27649331,47.37638092,8.55022812,495.23184204,7,7,1
1326904065.32550478,47.37638092,8.55022812,495.25173950,7,7,1
1326904065.37649393,47.37638092,8.55022812,495.23873901,7,7,1
1326904065.42464137,47.37638092,8.55022812,495.22567749,7,7,1
1326904065.48129964,47.37638092,8.55022812,495.21258545,7,7,1
1326904065.52461267,47.37638092,8.55022812,495.19946289,7,7,1
1326904065.57650518,47.37638092,8.55022812,495.22808838,7,7,1
1326904065.62541437,47.37638092,8.55022812,495.21499634,7,7,1
1326904065.67719269,47.37638092,8.55022812,495.20187378,7,7,1
1326904065.72547221,47.37638092,8.55022812,495.18865967,7,7,1
1326904065.77660465,47.37638092,8.55022812,495.17541504,7,7,1
1326904065.82498693,47.37638092,8.55022907,495.20916748,7,7,1
1326904065.87773895,47.37638092,8.55022907,495.19601440,7,7,1
1326904065.92463374,47.37638092,8.55022907,495.18283081,7,7,1
1326904065.97651601,47.37638092,8.55022907,495.16958618,7,7,1
1326904066.01806545,47.37638092,8.55022907,495.15631104,7,7,1
1326904066.07691360,47.37638092,8.55023003,495.19198608,7,7,1
1326904066.12550044,47.37638092,8.55023003,495.17617798,7,7,1
1326904066.17692733,47.37638092,8.55023003,495.16296387,7,7,1
1326904066.22481656,47.37638092,8.55023003,495.14971924,7,7,1
1326904066.27753305,47.37638092,8.55023003,495.13641357,7,7,1
1326904066.32451773,47.37638092,8.55023098,495.17160034,7,7,1
1326904066.37433243,47.37638092,8.55023098,495.15847778,7,7,1
1326904066.42552233,47.37638092,8.55023098,495.14526367,7,7,1
1326904066.47647524,47.37638092,8.55023098,495.13201904,7,7,1
1326904066.52552485,47.37638092,8.55023098,495.11871338,7,7,1
1326904066.57679772,47.37638092,8.55023098,495.16204834,7,7,1
1326904066.62546945,47.37638092,8.55023098,495.14889526,7,7,1
1326904066.67750549,47.37638092,8.55023098,495.13571167,7,7,1
1326904066.72478819,47.37638092,8.55023098,495.12249756,7,7,1
1326904066.77657247,47.37638092,8.55023098,495.10922241,7,7,1
1326904066.82553697,47.37638474,8.55023098,495.15628052,7,7,1
1326904066.87671804,47.37638092,8.55023098,495.14318848,7,7,1
1326904066.92545772,47.37638092,8.55023098,495.13003540,7,7,1
1326904066.97668195,47.37638092,8.55023098,495.11685181,7,7,1
1326904067.02478147,47.37638092,8.55023098,495.10363770,7,7,1
1326904067.07752085,47.37638092,8.55023193,495.16006470,7,7,1
1326904067.12557602,47.37638092,8.55023193,495.14703369,7,7,1
1326904067.17758131,47.37638092,8.55023193,495.13397217,7,7,1
1326904067.22565174,47.37638092,8.55023193,495.12088013,7,7,1
1326904067.27649808,47.37638092,8.55023193,495.10775757,7,7,1
1326904067.32554317,47.37638092,8.55023193,495.17150879,7,7,1
1326904067.37662482,47.37638092,8.55023193,495.15859985,7,7,1
1326904067.42560005,47.37638092,8.55023193,495.14569092,7,7,1
1326904067.47921276,47.37638092,8.55023193,495.13272095,7,7,1
1326904067.52488828,47.37638092,8.55023193,495.11968994,7,7,1
1326904067.57651925,47.37638092,8.55023193,495.18710327,7,7,1
1326904067.62549782,47.37638092,8.55023193,495.17437744,7,7,1
1326904067.67742133,47.37638092,8.55023193,495.16159058,7,7,1
1326904067.72553658,47.37638092,8.55023193,495.14877319,7,7,1
1326904067.77750325,47.37638092,8.55023193,495.13589478,7,7,1
1326904067.82536840,47.37638474,8.55023193,495.20135498,7,7,1
1326904067.87751412,47.37638092,8.55023193,495.18875122,7,7,1
1326904067.92553020,47.37638092,8.55023193,495.17608643,7,7,1
1326904067.97652078,47.37638092,8.55023289,495.16339111,7,7,1
1326904068.02488518,47.37638092,8.55023289,495.15063477,7,7,1
1326904068.07661557,47.37638092,8.55023289,495.22052002,7,7,1
1326904068.12548494,47.37638092,8.55023289,495.20806885,7,7,1
1326904068.17734694,47.37638092,8.55023289,495.19555664,7,7,1
1326904068.22454309,47.37638092,8.55023289,495.18298340,7,7,1
1326904068.27763700,47.37638092,8.55023289,495.17037964,7,7,1
1326904068.32509780,47.37638092,8.55023384,495.25048828,7,7,1
1326904068.37749600,47.37638092,8.55023384,495.23818970,7,7,1
1326904068.42513490,47.37638092,8.55023384,495.22583008,7,7,1
1326904068.47661567,47.37638092,8.55023384,495.21347046,7,7,1
1326904068.52550650,47.37638092,8.55023384,495.20101929,7,7,1
1326904068.57650089,47.37638092,8.55023384,495.27661133,7,7,1
1326904068.62477779,47.37638092,8.55023384,495.26443481,7,7,1
1326904068.67816615,47.37638092,8.55023384,495.25222778,7,7,1
1326904068.72859120,47.37638092,8.55023384,495.23995972,7,7,1
1326904068.77751160,47.37638092,8.55023384,495.22766113,7,7,1
1326904068.82552934,47.37638092,8.55023384,495.30206299,7,7,1
1326904068.87698126,47.37638092,8.55023384,495.29003906,7,7,1
1326904068.92573190,47.37638092,8.55023384,495.27798462,7,7,1
1326904068.97695327,47.37638092,8.55023384,495.26586914,7,7,1
1326904069.02451968,47.37638092,8.55023384,495.25369263,7,7,1
1326904069.07720637,47.37638092,8.55023479,495.32403564,7,7,1
1326904069.12550330,47.37638092,8.55023479,495.31210327,7,7,1
1326904069.17748165,47.37638092,8.55023479,495.30014038,7,7,1
1326904069.22453356,47.37638092,8.55023479,495.28811646,7,7,1
1326904069.27752805,47.37638092,8.55023479,495.27606201,7,7,1
1326904069.32546163,47.37638092,8.55023575,495.34027100,7,7,1
1326904069.37765670,47.37638092,8.55023575,495.32843018,7,7,1
1326904069.42894435,47.37638092,8.55023575,495.31655884,7,7,1
1326904069.47757125,47.37638092,8.55023575,495.30462646,7,7,1
1326904069.52965522,47.37638092,8.55023575,495.29263306,7,7,1
1326904069.57758403,47.37638092,8.55023575,495.35610962,7,7,1
1326904069.62549901,47.37638092,8.55023575,495.34436035,7,7,1
1326904069.67769790,47.37638092,8.55023575,495.33255005,7,7,1
1326904069.72547841,47.37638092,8.55023575,495.32073975,7,7,1
1326904069.77668357,47.37638092,8.55023575,495.30886841,6,7,1
1326904069.82567668,47.37638092,8.55023670,495.37026978,6,7,1
1326904069.87749410,47.37638092,8.55023670,495.35861206,6,7,1
1326904069.92490816,47.37638092,8.55023670,495.34689331,6,7,1
1326904069.97650194,47.37638092,8.55023670,495.33517456,6,7,1
1326904070.02500200,47.37638092,8.55023670,495.32342529,6,7,1
1326904070.07655525,47.37638092,8.55023670,495.37966919,6,7,1
1326904070.12551594,47.37638092,8.55023670,495.36810303,6,7,1
1326904070.17653918,47.37638092,8.55023670,495.35647583,6,7,1
1326904070.22501349,47.37638092,8.55023670,495.34481812,6,7,1
1326904070.27751851,47.37638092,8.55023766,495.33312988,6,7,1
1326904070.32558751,47.37638092,8.55023861,495.37405396,6,7,1
1326904070.37749982,47.37638092,8.55023861,495.36248779,6,7,1
1326904070.42451119,47.37638092,8.55023861,495.35089111,6,7,1
1326904070.47752166,47.37638092,8.55023861,495.33923340,6,7,1
1326904070.52547312,47.37638092,8.55023861,495.32754517,6,7,1
1326904070.57744408,47.37638092,8.55023861,495.35522461,6,7,1
1326904070.62478113,47.37638092,8.55023861,495.34365845,6,7,1
1326904070.67749524,47.37638092,8.55023861,495.33203125,6,7,1
1326904070.72451472,47.37638092,8.55023861,495.32037354,6,7,1
1326904070.77653527,47.37638092,8.55023861,495.30868530,6,7,1
1326904070.82548785,47.37638092,8.55023861,495.31872559,6,7,1
1326904070.87652206,47.37638092,8.55023956,495.30709839,6,7,1
1326904070.92551088,47.37638092,8.55023956,495.29541016,6,7,1
1326904070.97435784,47.37638092,8.55023956,495.28366089,6,7,1
1326904071.02451205,47.37638092,8.55023956,495.27185059,6,7,1
1326904071.07751894,47.37638474,8.55023956,495.26599121,6,7,1
1326904071.12550187,47.37638092,8.55023956,495.25418091,6,7,1
1326904071.17748713,47.37638092,8.55023956,495.24230957,6,7,1
1326904071.21755052,47.37638092,8.55023956,495.23040771,6,7,1
1326904071.27777934,47.37638092,8.55023956,495.22088623,6,7,1
1326904071.32551289,47.37638474,8.55023956,495.19400024,6,7,1
1326904071.37426686,47.37638474,8.55023956,495.18197632,6,7,1
1326904071.42510748,47.37638474,8.55023956,495.16992188,6,7,1
1326904071.47567391,47.37638474,8.55023956,495.15783691,6,7,1
1326904071.52495861,47.37638474,8.55023956,495.14569092,6,7,1
1326904071.57649755,47.37638474,8.55023956,495.11120605,6,7,1
1326904071.62480783,47.37638474,8.55023956,495.09893799,6,7,1
1326904071.67701197,47.37638474,8.55023956,495.08666992,6,7,1
1326904071.71754742,47.37638474,8.55024052,495.07434082,6,7,1
1326904071.77697587,47.37638474,8.55024052,495.06442261,5,6,1
1326904071.82547688,47.37638474,8.55024052,495.01284790,5,6,1
1326904071.87752008,47.37638474,8.55024052,495.00024414,5,6,1
1326904071.92549539,47.37638474,8.55024052,494.98760986,5,6,1
1326904071.96964788,47.37638474,8.55024052,494.97488403,5,6,1
1326904072.02548432,47.37638474,8.55024052,494.96463013,5,6,1
1326904072.07652593,47.37638474,8.55024052,494.89520264,5,6,1
1326904072.12549400,47.37638474,8.55024052,494.88214111,5,6,1
1326904072.17662239,47.37638474,8.55024052,494.86898804,5,6,1
1326904072.22449732,47.37638474,8.55024052,494.85580444,5,6,1
1326904072.27751565,47.37638855,8.55023956,494.77529907,5,6,1
1326904072.32566142,47.37638855,8.55024052,494.76818848,5,6,1
1326904072.37751269,47.37638474,8.55024052,494.75466919,5,6,1
1326904072.42469907,47.37638474,8.55024052,494.74108887,5,6,1
1326904072.47683764,47.37638474,8.55024052,494.72750854,5,6,1
1326904072.52550149,47.37638474,8.55024052,494.71383667,5,6,1
1326904072.57648969,47.37638855,8.55024052,494.62448120,5,6,1
1326904072.62549710,47.37638855,8.55024052,494.61047363,5,6,1
1326904072.68019390,47.37638855,8.55024052,494.59643555,5,6,1
1326904072.72553968,47.37638855,8.55024052,494.58233643,5,6,1
1326904072.77751517,47.37638855,8.55024052,494.56823730,5,6,1
1326904072.82564688,47.37638855,8.55023956,494.47039795,5,6,1
1326904072.88074064,47.37638855,8.55023956,494.45587158,5,6,1
1326904072.92559004,47.37638855,8.55023956,494.44131470,5,6,1
1326904072.96457052,47.37638855,8.55023956,494.42672729,5,6,1
1326904073.02455044,47.37638855,8.55023956,494.41500854,5,6,1
1326904073.07775807,47.37638855,8.55023956,494.30157471,5,6,1
1326904073.12471223,47.37638855,8.55023956,494.28646851,5,6,1
1326904073.17756057,47.37638855,8.55023956,494.27133179,5,6,1
1326904073.22455215,47.37638855,8.55023956,494.25616455,5,6,1
1326904073.27655077,47.37638855,8.55023956,494.24093628,5,6,1
1326904073.32547641,47.37639236,8.55023861,494.12173462,5,6,1
1326904073.37743092,47.37639236,8.55023861,494.10604858,5,6,1
1326904073.42618895,47.37639236,8.55023861,494.09036255,5,6,1
1326904073.46572733,47.37639236,8.55023861,494.07461548,5,6,1
1326904073.52524710,47.37639236,8.55023861,494.06201172,5,6,1
1326904073.57650185,47.37639236,8.55023670,493.92611694,5,6,1
1326904073.62508225,47.37639236,8.55023766,493.90985107,5,6,1
1326904073.67662287,47.37639236,8.55023766,493.89352417,5,6,1
1326904073.71753478,47.37639236,8.55023766,493.87716675,5,6,1
1326904073.77728844,47.37639236,8.55023766,493.86407471,5,6,1
1326904073.82492661,47.37639618,8.55023575,493.72195435,5,6,1
1326904073.87433290,47.37639618,8.55023575,493.70501709,5,6,1
1326904073.92574692,47.37639618,8.55023575,493.68804932,5,6,1
1326904073.96458554,47.37639618,8.55023575,493.67105103,5,6,1
1326904074.02464008,47.37639618,8.55023575,493.65740967,5,6,1
1326904074.07442141,47.37639618,8.55023479,493.50457764,5,6,1
1326904074.12547064,47.37639618,8.55023479,493.48693848,5,6,1
1326904074.17752600,47.37639618,8.55023479,493.46929932,5,6,1
1326904074.22413135,47.37639618,8.55023479,493.45159912,5,6,1
1326904074.27921462,47.37639999,8.55023384,493.29507446,5,6,1
1326904074.32554030,47.37639999,8.55023384,493.27807617,5,6,1
1326904074.37650442,47.37639999,8.55023384,493.25973511,5,6,1
1326904074.42493629,47.37639999,8.55023384,493.24136353,5,6,1
1326904074.47651458,47.37639999,8.55023384,493.22293091,5,6,1
1326904074.52550316,47.37639999,8.55023384,493.20446777,5,6,1
1326904074.57708335,47.37639999,8.55023289,493.04061890,5,6,1
1326904074.62457204,47.37639999,8.55023289,493.02154541,5,6,1
1326904074.67754197,47.37639999,8.55023289,493.00244141,5,6,1
1326904074.71649861,47.37639999,8.55023289,492.98327637,5,6,1
1326904074.77750850,47.37639999,8.55023289,492.96789551,5,6,1
1326904074.82469511,47.37640381,8.55023193,492.78674316,5,6,1
1326904074.87713337,47.37640381,8.55023193,492.76681519,5,6,1
1326904074.92550278,47.37640381,8.55023193,492.74685669,5,6,1
1326904074.96556139,47.37640381,8.55023193,492.72683716,5,6,1
1326904075.02555704,47.37640381,8.55023193,492.71078491,5,6,1
1326904075.07750654,47.37640381,8.55023098,492.52172852,5,6,1
1326904075.12451363,47.37640381,8.55023098,492.50097656,5,6,1
1326904075.17752695,47.37640381,8.55023098,492.48016357,5,6,1
1326904075.22555304,47.37640381,8.55023098,492.45928955,5,6,1
1326904075.27760959,47.37640381,8.55023003,492.27050781,5,6,1
1326904075.32549238,47.37640762,8.55023003,492.24783325,5,6,1
1326904075.37660217,47.37640762,8.55023003,492.22619629,5,6,1
1326904075.42475986,47.37640762,8.55023003,492.20455933,5,6,1
1326904075.46951079,47.37640762,8.55023003,492.18286133,5,6,1
1326904075.52503133,47.37640762,8.55023003,492.16549683,5,6,1
1326904075.57751012,47.37640762,8.55022907,491.96023560,5,6,1
1326904075.61673260,47.37640762,8.55022907,491.93768311,5,6,1
1326904075.67684817,47.37640762,8.55022907,491.91961670,5,6,1
1326904075.72550488,47.37640762,8.55022907,491.89245605,5,6,1
1326904075.77662659,47.37640762,8.55022907,491.86978149,5,7,1
1326904075.82459760,47.37641144,8.55022812,491.66616821,5,7,1
1326904075.87755394,47.37641144,8.55022717,491.64266968,5,7,1
1326904075.92563176,47.37641144,8.55022717,491.61914062,5,7,1
1326904075.97751665,47.37641144,8.55022717,491.59558105,5,7,1
1326904076.02546644,47.37641144,8.55022717,491.57196045,5,7,1
1326904076.07661200,47.37641144,8.55022621,491.35766602,5,7,1
1326904076.12551737,47.37641144,8.55022621,491.33325195,5,7,1
1326904076.17649150,47.37641144,8.55022621,491.30880737,5,7,1
1326904076.22485304,47.37641144,8.55022621,491.28430176,5,7,1
1326904076.27749157,47.37641144,8.55022621,491.25973511,5,7,1
1326904076.32568812,47.37641144,8.55022526,491.04010010,5,7,1
1326904076.37749124,47.37641144,8.55022526,491.01473999,5,7,1
1326904076.42457914,47.37641144,8.55022526,490.98934937,5,7,1
1326904076.46549964,47.37641144,8.55022526,490.96389771,5,7,1
1326904076.52552724,47.37641144,8.55022526,490.94351196,5,7,1
1326904076.57731938,47.37641525,8.55022526,490.71942139,5,7,1
1326904076.62485623,47.37641525,8.55022526,490.69311523,5,7,1
1326904076.67764568,47.37641525,8.55022430,490.66674805,5,7,1
1326904076.72553277,47.37641525,8.55022430,490.64035034,5,7,1
1326904076.77654314,47.37641525,8.55022430,490.61389160,5,7,1
1326904076.82458210,47.37641525,8.55022335,490.47769165,5,7,1
1326904076.87661982,47.37641525,8.55022335,490.45074463,5,7,1
1326904076.91754103,47.37641525,8.55022335,490.42376709,5,7,1
1326904076.97754359,47.37641525,8.55022335,490.40216064,5,7,1
1326904077.02551889,47.37641525,8.55022335,490.36972046,5,7,1
1326904077.07881069,47.37641525,8.55022240,490.28298950,5,7,1
1326904077.12569237,47.37641525,8.55022240,490.25564575,5,7,1
1326904077.17751193,47.37641525,8.55022240,490.22827148,5,7,1
1326904077.22561693,47.37641525,8.55022240,490.20086670,5,7,1
1326904077.27662158,47.37641525,8.55022240,490.17340088,5,7,1
1326904077.32558179,47.37641525,8.55022240,490.11550903,5,7,1
1326904077.37662196,47.37641525,8.55022240,490.08789062,5,7,1
1326904077.42552757,47.37641525,8.55022240,490.06021118,5,7,1
1326904077.46605444,47.37641525,8.55022240,490.03250122,5,7,1
1326904077.52850103,47.37641525,8.55022240,490.01028442,5,7,1
